Location: Newark
(20.0000°S, 47.0000°E)
Time: 18:16:17
(UTC+00:00)

ISS - Visible Passes

Search period start: 20 March 2019 00:00
Search period end: 30 March 2019 00:00
Orbit: 406 x 411 km, 51.6° (Epoch: 21 March)

Date Brightness Start Highest point End Pass type
(mag) Time Alt. Az. Time Alt. Az. Time Alt. Az.
22 Mar -1.2 02:14:08 10° N 02:16:43 22° NE 02:19:21 10° ESE visible
24 Mar -3.9 02:07:54 11° NW 02:11:03 88° SW 02:14:22 10° SE visible
25 Mar -2.3 01:20:02 33° NE 01:20:04 33° NE 01:23:06 10° ESE visible
26 Mar -2.4 02:04:48 21° WSW 02:05:28 23° SW 02:08:11 10° S visible
27 Mar -1.4 01:16:35 18° SSE 01:16:35 18° SSE 01:17:38 10° SSE visible
